Location: ????????
(55.0808°N, 38.5463°E)
Time: 02:48:17
(UTC+00:00)

Nimbus 3 Rocket - Pass Details

Date: 27 September 2024
Orbit: 1072 x 1131 km, 99.9° (Epoch: 03 October)

Event Time Altitude Azimuth Distance (km) Brightness Sun altitude
Rises 22:14:50 0° 17° (NNE) 3,905 9.2 -35.7°
Reaches altitude 10° 22:17:23 10° 15° (NNE) 2,939 8.3 -35.6°
Enters shadow 22:22:46 57° 347° (NNW) 1,253 5.6 -35.3°
